date,time,DOY,Ta_1_1_1,Pa_1_1_1,RH_1_1_1,LWin_1_1_1,LWout_1_1_1,SWin_1_1_1,SWout_1_1_1,PPFD_1_1_1,MWS_1_1_1,WD_1_1_1,SWC_1_1_1,Ts_1_1_1
[yyyy-mm-dd],[HH:MM],[ddd.ddd],[K],[Pa],[%],[W+1m-2],[W+1m-2],[W+1m-2],[W+1m-2],[µmol+1m-2s-1],[m+1s-1],[deg],[m+3m-3],[K]
2018-03-10,00:30,69.020,268.18100000000010,94584.933333333334,52.311000000000000,287.51166666666666,217.95833333333334,0.94599999999999984,-3.4236666666666666,1.2769999999999995,3.4699999999999998,220.56666666666666,0.24000000000000016,273.21333333333331
2018-03-10,01:00,69.041,267.74866666666679,94610.433333333334,52.711999999999996,284.24566666666675,216.76633333333331,0.93033333333333335,-4.1726666666666672,7.00000000000000101E-003,2.8433333333333333,245.96599999999998,0.24000000000000016,273.21733333333339
2018-03-10,01:30,69.062,267.41699999999997,94628.800000000003,52.916666666666671,281.27499999999998,214.38400000000004,1.0150000000000001,-4.2060000000000004,-1.00000000000000019E-002,2.5233333333333330,343.62066666666664,0.24000000000000016,273.21066666666667
2018-03-10,02:00,69.083,267.15566666666672,94635.333333333328,52.620333333333342,278.39933333333340,213.40866666666665,0.94600000000000006,-4.1689999999999996,-1.30000000000000011E-002,2.2333333333333329,222.69899999999998,0.24000000000000016,273.21133333333336
2018-03-10,02:30,69.104,266.94533333333317,94647.899999999994,52.613999999999997,276.29433333333333,212.43333333333334,0.80833333333333324,-4.2523333333333344,-3.00000000000000006E-003,1.8600000000000001,10.133333333333331,0.24000000000000016,273.21133333333341
2018-03-10,03:00,69.124,266.83866666666671,94646.433333333334,52.164666666666662,274.21866666666665,211.62366666666665,0.94633333333333336,-4.0573333333333341,-3.00000000000000006E-003,2.0200000000000005,20.966666666666672,0.24000000000000016,273.21066666666673
2018-03-10,03:30,69.145,266.69033333333334,94641.100000000006,53.439666666666668,273.24300000000005,211.28633333333329,0.85200000000000020,-4.1710000000000003,-3.00000000000000006E-003,2.3299999999999992,30.644333333333332,0.24000000000000016,273.20933333333335
2018-03-10,04:00,69.166,266.55333333333340,94659.766666666663,55.061000000000000,271.56866666666667,210.76666666666668,0.78366666666666651,-4.0443333333333351,1.00000000000000002E-003,2.0433333333333334,28.078333333333333,0.24000000000000016,273.20766666666663
2018-03-10,04:30,69.187,266.66433333333327,94678.666666666672,55.112333333333325,271.15866666666665,210.53299999999999,0.63133333333333330,-4.0333333333333332,1.66666666666666677E-003,1.8400000000000003,25.311333333333334,0.24000000000000016,273.21300000000002
2018-03-10,05:00,69.208,266.56233333333353,94694.800000000003,55.698666666666682,269.97633333333340,210.43833333333333,0.35866666666666658,-4.0703333333333340,-3.00000000000000006E-003,1.5666666666666669,32.700333333333326,0.24000000000000016,273.21433333333340
2018-03-10,05:30,69.229,266.47100000000006,94700.133333333331,56.237666666666698,268.76700000000000,209.73266666666666,0.20733333333333334,-4.0583333333333336,-1.00000000000000002E-003,1.4200000000000002,50.433999999999990,0.24000000000000016,273.21233333333333
2018-03-10,06:00,69.249,266.37766666666664,94714.566666666666,56.680666666666660,268.13999999999999,209.68099999999998,-0.10000000000000003,-4.0126666666666679,9.00000000000000105E-003,1.2333333333333336,76.078000000000003,0.24000000000000016,273.21566666666672
2018-03-10,06:30,69.270,266.44566666666668,94728.100000000006,56.297999999999981,267.40266666666668,209.40200000000002,0.17300000000000001,-3.7720000000000002,-2.66666666666666658E-003,1.7133333333333332,90.699666666666658,0.24000000000000016,273.21100000000001
2018-03-10,07:00,69.291,266.25100000000009,94741.333333333328,56.669000000000004,266.60366666666664,208.90766666666661,0.26333333333333336,-3.6936666666666662,-2.00000000000000004E-003,2.0233333333333339,97.488666666666660,0.24000000000000016,273.20666666666671
2018-03-10,07:30,69.312,266.00133333333338,94759.566666666666,57.126000000000005,266.13033333333328,208.58966666666666,0.34866666666666657,-3.6586666666666665,-6.66666666666666709E-003,2.0499999999999998,97.755333333333326,0.24000000000000016,273.21266666666668
2018-03-10,08:00,69.333,266.02666666666670,94750.766666666663,56.997666666666660,265.68166666666667,208.23933333333332,0.37433333333333318,-3.6103333333333323,1.00000000000000002E-003,2.1200000000000001,98.311999999999998,0.24000000000000016,273.21266666666673
2018-03-10,08:30,69.354,265.78900000000004,94740.000000000000,58.400000000000013,265.11133333333333,207.89799999999997,0.52566666666666662,-3.6856666666666666,-2.00000000000000004E-003,2.2166666666666668,106.86666666666666,0.24000000000000016,273.21100000000001
2018-03-10,09:00,69.374,265.67533333333330,94736.899999999994,57.465000000000011,264.76900000000001,207.71666666666664,0.73799999999999999,-3.5869999999999989,-1.00000000000000002E-003,2.1266666666666669,110.04400000000000,0.24000000000000016,273.20900000000000
2018-03-10,09:30,69.395,265.94800000000004,94733.566666666666,54.835000000000008,264.51966666666669,207.70300000000006,0.68366666666666698,-3.4480000000000000,3.66666666666666616E-003,1.9133333333333320,118.66666666666667,0.24000000000000016,273.20933333333329
2018-03-10,10:00,69.416,265.93900000000002,94733.899999999994,54.487000000000009,263.98066666666671,207.64099999999999,0.49699999999999994,-3.5686666666666658,2.66666666666666658E-003,1.6666666666666672,120.38933333333333,0.24000000000000016,273.20933333333329
2018-03-10,10:30,69.437,266.00100000000020,94749.666666666672,52.320666666666661,263.93399999999997,207.68433333333331,0.37433333333333335,-3.3363333333333318,2.00000000000000004E-003,1.4299999999999993,115.47766666666665,0.24000000000000016,273.20966666666669
2018-03-10,11:00,69.458,265.94566666666657,94766.433333333334,51.854333333333322,262.99033333333330,207.49933333333334,0.38499999999999984,-3.4556666666666667,6.00000000000000012E-003,1.2233333333333336,125.66666666666666,0.24000000000000016,273.21233333333333
2018-03-10,11:30,69.479,265.87133333333333,94779.899999999994,51.941333333333326,262.49300000000011,206.91333333333341,0.57533333333333336,-3.2846666666666668,6.66666666666666709E-003,1.3500000000000001,128.64500000000001,0.24000000000000016,273.21166666666670
2018-03-10,12:00,69.499,266.04466666666684,94788.333333333328,51.158666666666683,261.84733333333338,206.63466666666665,0.47433333333333327,-3.3460000000000005,7.56666666666666737E-002,1.0333333333333330,130.15600000000003,0.24000000000000016,273.21300000000008
2018-03-10,12:30,69.520,265.92466666666667,94817.433333333334,51.384333333333323,261.33633333333336,206.27566666666669,1.9616666666666664,1.5173333333333332,7.8373333333333326,1.1066666666666669,128.05466666666666,0.24000000000000016,273.21033333333332
2018-03-10,13:00,69.541,265.76666666666682,94853.233333333337,52.168666666666667,263.04966666666667,207.14733333333325,13.701333333333334,51.949333333333335,73.604666666666674,1.5400000000000000,149.50000000000000,0.24000000000000016,273.21066666666667
2018-03-10,13:30,69.562,265.59233333333339,94877.633333333331,53.369666666666681,268.77466666666675,210.17033333333336,27.009333333333334,135.31233333333336,206.84333333333331,1.5499999999999998,159.47800000000001,0.24000000000000016,273.21400000000000
2018-03-10,14:00,69.583,266.92700000000002,94887.100000000006,49.446999999999996,278.72266666666673,215.56500000000000,39.561000000000000,224.99900000000000,371.33333333333343,0.56000000000000016,169.23300000000000,0.24000000000000016,273.20499999999998
2018-03-10,14:30,69.604,267.93266666666665,94908.766666666663,47.770666666666678,287.93500000000000,221.73899999999995,52.344000000000001,315.45433333333335,549.75533333333328,0.48000000000000004,170.93233333333330,0.24000000000000016,273.21300000000002
2018-03-10,15:00,69.624,268.45766666666674,94936.333333333328,45.514666666666663,295.42766666666665,226.64333333333335,67.336333333333329,402.76533333333333,727.53733333333344,0.64666666666666661,167.48899999999998,0.24000000000000016,273.21400000000006
2018-03-10,15:30,69.645,268.37600000000015,94956.433333333334,44.774666666666668,299.63333333333333,229.65099999999998,80.407666666666657,478.80599999999993,883.01133333333314,1.8599999999999999,186.19999999999999,0.24000000000000016,273.20566666666667
2018-03-10,16:00,69.666,268.67366666666663,94977.566666666666,44.085999999999999,302.64766666666668,231.90999999999997,95.303333333333327,523.83466666666675,988.21766666666667,2.2000000000000006,169.84433333333334,0.24000000000000016,273.21466666666669
2018-03-10,16:30,69.687,269.28133333333341,94984.800000000003,41.841333333333331,307.39933333333335,235.65033333333335,111.70133333333334,623.58700000000010,1177.6636666666666,1.7866666666666668,112.28866666666667,0.24000000000000016,273.21333333333342
2018-03-10,17:00,69.708,269.50133333333338,94982.399999999994,41.127666666666670,310.13166666666672,237.69033333333331,118.08533333333330,663.85233333333349,1271.6236666666666,1.9899999999999998,145.75566666666666,0.24000000000000016,273.20900000000000
2018-03-10,17:30,69.729,269.94099999999997,94979.899999999994,40.358333333333334,312.78299999999996,238.59166666666667,123.08466666666666,688.11899999999991,1332.8046666666669,1.9366666666666672,146.48900000000000,0.24000000000000016,273.21100000000001
2018-03-10,18:00,69.749,270.30266666666677,94973.333333333328,39.157333333333334,314.63233333333329,240.14300000000000,127.46933333333335,703.84399999999994,1373.5809999999999,1.7333333333333336,109.16600000000000,0.24000000000000016,273.21033333333338
2018-03-10,18:30,69.770,270.67933333333337,94954.866666666669,37.767666666666663,316.87900000000002,241.23066666666671,128.16400000000002,706.50199999999995,1387.0306666666663,1.7966666666666666,138.19933333333333,0.24000000000000016,273.21033333333338
2018-03-10,19:00,69.791,271.31366666666679,94916.366666666669,36.432000000000002,319.72966666666673,242.72966666666665,123.96833333333333,692.00766666666664,1368.9916666666670,1.5633333333333332,198.22200000000001,0.24000000000000016,273.20900000000000
2018-03-10,19:30,69.812,271.89300000000009,94879.933333333334,35.176333333333332,322.11399999999986,243.71400000000000,118.31566666666666,666.76066666666668,1324.3683333333331,1.6366666666666667,263.01100000000002,0.24000000000000016,273.21400000000006
2018-03-10,20:00,69.833,272.30966666666671,94860.800000000003,34.413999999999994,321.96766666666656,244.37433333333331,106.85700000000001,626.77433333333329,1246.8803333333335,2.3666666666666671,255.42266666666669,0.24000000000000016,273.20833333333331
2018-03-10,20:30,69.854,272.86766666666665,94853.666666666672,33.699666666666658,321.97266666666667,244.08133333333336,94.644666666666666,574.42566666666676,1143.4079999999999,2.2599999999999998,263.68866666666668,0.24000000000000016,273.20833333333331
2018-03-10,21:00,69.874,273.14166666666671,94857.000000000000,33.057000000000002,322.80866666666674,243.89200000000000,82.562666666666672,509.00233333333330,1014.6396666666665,2.1700000000000004,275.87799999999999,0.24000000000000016,273.20799999999997
2018-03-10,21:30,69.895,273.19833333333338,94865.533333333340,32.829333333333331,320.42100000000005,241.40966666666671,68.509333333333331,425.38966666666676,845.27499999999986,1.9999999999999996,240.45533333333333,0.24000000000000016,273.21033333333344
2018-03-10,22:00,69.916,273.38633333333325,94874.100000000006,32.399666666666668,320.65800000000002,239.98699999999997,54.465000000000003,345.60133333333329,683.92066666666676,1.5633333333333330,164.44433333333333,0.24000000000000016,273.21033333333332
2018-03-10,22:30,69.937,273.69300000000004,94887.333333333328,32.153333333333329,319.30233333333337,237.79700000000000,38.118666666666677,246.21666666666664,486.50866666666661,1.4466666666666665,262.51166666666666,0.24000000000000016,273.20866666666666
2018-03-10,23:00,69.958,273.34966666666668,94909.466666666660,32.655333333333331,315.88633333333325,235.17500000000004,28.257333333333335,171.72066666666663,331.05433333333326,1.6866666666666668,203.06700000000001,0.24000000000000016,273.21133333333336
2018-03-10,23:30,69.979,272.79766666666671,94932.333333333328,34.463333333333331,308.95566666666667,231.45466666666661,13.340000000000002,68.609000000000009,138.12766666666667,2.4866666666666664,286.76633333333331,0.24000000000000016,273.20666666666665
2018-03-11,00:00,70.000,272.00966666666670,94964.866666666669,37.434333333333328,302.84066666666672,228.06199999999995,5.6056666666666635,16.677333333333330,35.846333333333327,2.4600000000000004,100.72233333333334,0.24000000000000016,273.20866666666666
